Location: Dealu Mare
(46.0500°N, 22.8167°E)
Time: 22:08:53
(UTC+00:00)

Cosmos 1743 Rocket - Pass Details

Date: 15 January 2026
Orbit: 597 x 626 km, 82.6° (Epoch: 13 February)

Event Time Altitude Azimuth Distance (km) Brightness Sun altitude
Rises 04:01:44 0° 175° (S) 2,897 7.2 -21.2°
Reaches altitude 10° 04:04:00 10° 171° (S) 1,994 6.4 -20.8°
Maximum altitude 04:08:18 54° 95° (E) 761 4.3 -20.1°
Drops below altitude 10° 04:12:38 10° 18° (NNE) 2,001 6.2 -19.3°
Sets 04:14:54 0° 14° (NNE) 2,908 7.0 -19.0°
